User: anonymous   Login
Location: Unspecified
(0.0000°N, 0.0000°E)
Time: 08:05:29
(UTC+01:00)
Language:

ISS - Orbit

View from above orbital plane
View from above orbital plane
View from above satellite
View from above satellite

Ground track
Ground track

The orbit data is extracted from the following two-line orbital elements,

1 25544U 98067A   18052.52275003  .00016717  00000-0  10270-3 0  9029
2 25544  51.6361 235.3316 0003086 119.2616 240.8846 15.54138186 20523
Epoch (UTC): 21 February 2018 12:32:45
Eccentricity: 0.0003086
inclination: 51.6361°
perigee height: 402 km
apogee height: 407 km
right ascension of ascending node: 235.3316°
argument of perigee: 119.2616°
revolutions per day: 15.54138186
mean anomaly at epoch: 240.8846°
orbit number at epoch: 2052

The dashed part of the orbit path shows where the satellite is in the earth's shadow,  

DLR